Истиклол

Таджикистан     40°33′56″N   69°38′30″E
темп.,
°C
ветер,
м/с
пор.,
м/с
влажн.,
%
обл.,
%
осадки,
мм/ч
давл.,
гПа
погр.,
м
11 апреля, вс
вс1123:00+14ссз33360 0.0 101824
02:00+12ссз33390 0.0 101728
05:00+11сз33430 0.0 101829
08:00+13зсз45400 0.0 1018327
11:00+15зсз67430 0.0 1018800
14:00+15зсз69370 0.0 1017928
17:00+14зсз57375 0.3 1017750
20:00+11зсз345121 0.1 1018153
12 апреля, пн
пн1223:00+9сз456338 0.7 1018171
02:00+8сз336930 0.6 101866
05:00+8зсз236862 0.7 1019100
08:00+10юз11589 0.1 1019268
11:00+14юв454920 0.2 1019766
14:00+16ююз4242100 0.0 10181096
17:00+16зсз444192 0.1 1017887
20:00+12сз446276 0.4 1019110
13 апреля, вт
вт1323:00+12ссз2255100 0.6 101944
02:00+11зсз1154100 0.0 101927
05:00+12сз3350100 0.0 101849
08:00+12зсз3450100 0.0 1020304
11:00+13в2251100 0.1 10221015
14:00+15юз2444100 0.1 10201589
17:00+15ссв244297 0.3 10211671
20:00+13св2349100 0.7 1022179
14 апреля, ср
ср1423:00+13всв224649 0.7 102030
02:00+11всв33485 0.0 101935
05:00+11всв44505 0.0 101942
08:00+14в57515 0.0 1018497
11:00+17в55405 0.0 10171063
14:00+20вюв55315 0.0 10141415
17:00+20юв43290 0.0 10121262
20:00+16в22421 0.0 101314
15 апреля, чт
чт1523:00+15ссв114527 0.0 101211
02:00+14зсз2244100 0.0 101214
05:00+13зсз2250100 0.0 101222
08:00+16з224297 0.0 1013175
11:00+19зюз323670 0.0 1012806
14:00+21зсз5532100 0.0 10111408
17:00+19зсз5537100 0.0 1012866
20:00+16сз4551100 0.0 1014222